Date,TemperatureHighF,TemperatureAvgF,TemperatureLowF,DewpointHighF,DewpointAvgF,DewpointLowF,HumidityHigh,HumidityAvg,HumidityLow,PressureMaxIn,PressureMinIn,WindSpeedMaxMPH,WindSpeedAvgMPH,GustSpeedMaxMPH,PrecipitationSumIn
2013-8-1,88.5,73.6,65.5,70.9,66.7,63.8,99,81,50,29.95,29.74,9,1,14,0.04
2013-8-2,89.1,77.0,66.7,65.2,61.1,54.5,91,61,34,29.92,29.82,9,2,13,0.00
2013-8-3,77.2,69.8,64.2,70.2,64.1,58.6,99,83,62,29.93,29.88,5,1,9,0.00
2013-8-4,82.4,70.6,62.2,64.5,58.4,51.1,99,69,36,30.01,29.89,14,4,20,0.01
2013-8-5,85.8,70.9,56.7,61.0,54.9,48.1,92,60,31,30.07,29.93,6,2,9,0.02
2013-8-6,82.6,69.5,61.0,67.3,64.1,60.0,99,84,57,30.01,29.94,7,2,11,0.02
2013-8-7,87.4,74.1,68.0,73.4,69.6,66.2,99,87,56,30.00,29.90,8,1,11,0.00
2013-8-8,85.1,75.4,68.7,74.6,71.6,68.4,99,89,68,29.97,29.88,4,1,8,1.25
2013-8-9,87.1,78.2,72.7,77.4,72.4,69.5,99,83,62,29.92,29.81,10,2,14,0.10
2013-8-10,90.1,77.0,69.8,71.1,65.9,55.2,93,72,37,30.04,29.91,6,2,9,0.01
2013-8-11,90.9,77.3,68.5,70.5,67.6,63.1,94,75,44,30.05,29.92,6,1,11,0.00
2013-8-12,91.8,78.4,67.3,70.6,67.0,61.7,99,71,41,29.97,29.85,11,2,16,0.01
2013-8-13,87.1,75.2,66.0,70.5,67.1,57.5,99,78,49,29.85,29.67,14,3,17,0.36
2013-8-14,74.3,65.4,55.9,57.7,50.8,47.2,77,60,43,30.08,29.80,15,5,21,0.00
2013-8-15,83.8,67.2,54.7,55.4,50.4,42.4,91,60,27,30.14,30.02,7,2,9,17.59
2013-8-16,85.3,67.5,52.2,58.7,54.3,49.0,99,67,33,30.16,30.05,8,1,10,0.00
2013-8-17,83.8,68.5,54.0,60.5,57.4,52.9,99,71,43,30.22,30.14,7,1,11,0.00
2013-8-18,72.9,65.0,61.5,63.8,61.2,58.9,98,88,65,30.22,30.13,8,2,9,0.21
2013-8-19,84.4,69.1,59.9,69.9,64.8,59.6,99,87,59,30.14,29.98,5,1,8,0.01
2013-8-20,90.0,74.3,61.7,70.5,63.9,60.2,99,74,42,30.12,30.03,7,1,11,0.00
2013-8-21,93.9,75.9,64.0,72.8,67.5,62.9,98,78,44,30.15,30.00,6,1,12,0.04
2013-8-22,89.6,77.0,66.9,71.0,65.9,62.8,99,71,44,30.07,29.87,10,2,13,17.85
2013-8-23,77.7,69.3,60.3,69.0,65.1,59.2,99,87,58,30.10,29.90,7,1,11,0.32
2013-8-24,88.2,69.3,58.3,64.0,58.9,50.3,99,75,29,30.30,30.09,7,1,10,1.86
2013-8-25,90.7,71.1,55.8,64.1,59.3,54.1,99,71,33,30.36,30.19,6,1,13,0.69
2013-8-26,92.3,76.1,63.9,66.7,62.4,58.9,91,65,36,30.23,29.95,8,2,13,20.76
2013-8-27,88.2,79.0,70.5,71.7,67.9,62.0,83,69,56,29.97,29.83,11,3,17,0.03
2013-8-28,76.8,73.0,69.4,73.9,71.0,67.3,99,94,77,29.89,29.75,5,1,8,0.41
2013-8-29,90.1,76.1,68.0,71.8,69.5,65.5,98,82,47,29.97,29.80,7,2,10,3.06
2013-8-30,93.2,77.2,64.2,71.4,68.0,63.3,99,77,44,29.97,29.80,7,1,11,0.01
2013-8-31,93.2,80.6,71.6,73.4,70.1,66.7,92,72,47,29.83,29.70,5,2,11,24.27